STARLINK-5067 (55653 NORAD) Tracking and Keplerian Element Data

This shows tracking and keplerian element data for the satellite.

Feedback or suggestion? Click here.




ElementValue
Catalog55653
NameSTARLINK-5067
Epoch Orbit623
Epoch Day85.04330043
Epoch Year2023
RAAN47.951
Inclination70
Eccentricity0.0003485
Argument of Perigee262.9282
Mean Anonmoly97.1517
Mean Motion15.69935269
Decay Rate-2.912E-05
L11 55653U 23021AB 23085.04330043 -.00002912 00000+0 -22448-4 0 9996
L22 55653 70.0000 47.9510 0003485 262.9282 97.1517 15.69935269 6236



Live tracking and technical data element details for STARLINK-5067 (NORAD 55653). STARLINK-5067 can be tracked NOW for your location showing map with azimuth and elevation plus other details from your city location.







IsCatalogInMostPopularTable: catalog: 55653, numindb: 2
Update: records affected: 1



GetName: 55653 STARLINK-5067

Hit Count: updated at: Tue, 28 Mar 2023 03:21:20 GMT